TimeCDT,TemperatureF,Dew PointF,Humidity,Sea Level PressureIn,VisibilityMPH,Wind Direction,Wind SpeedMPH,Gust SpeedMPH,PrecipitationIn,Events,Conditions,WindDirDegrees,DateUTC
12:15 AM,42.8,23.0,46,30.04,10.0,ESE,6.9,-,N/A,,Clear,110,2011-10-30 05:15:00
12:35 AM,42.8,23.0,46,30.05,10.0,ESE,5.8,-,N/A,,Clear,110,2011-10-30 05:35:00
12:55 AM,42.8,23.0,46,30.05,10.0,ESE,4.6,-,N/A,,Clear,110,2011-10-30 05:55:00
1:15 AM,42.8,23.0,46,30.05,10.0,ESE,4.6,-,N/A,,Clear,110,2011-10-30 06:15:00
1:35 AM,44.6,23.0,43,30.05,10.0,ESE,5.8,-,N/A,,Clear,120,2011-10-30 06:35:00
1:55 AM,46.4,23.0,40,30.04,10.0,ESE,8.1,-,N/A,,Clear,120,2011-10-30 06:55:00
2:15 AM,46.4,23.0,40,30.04,10.0,ESE,8.1,-,N/A,,Clear,110,2011-10-30 07:15:00
2:35 AM,46.4,23.0,40,30.03,10.0,ESE,6.9,-,N/A,,Clear,110,2011-10-30 07:35:00
2:55 AM,46.4,23.0,40,30.02,10.0,ESE,8.1,-,N/A,,Clear,120,2011-10-30 07:55:00
3:15 AM,44.6,23.0,43,30.02,10.0,ESE,3.5,-,N/A,,Clear,110,2011-10-30 08:15:00
3:35 AM,46.4,23.0,40,30.01,10.0,ESE,10.4,-,N/A,,Clear,120,2011-10-30 08:35:00
3:55 AM,46.4,23.0,40,30.00,10.0,ESE,8.1,-,N/A,,Clear,120,2011-10-30 08:55:00
4:15 AM,46.4,23.0,40,30.00,10.0,SE,8.1,-,N/A,,Clear,140,2011-10-30 09:15:00
4:35 AM,46.4,24.8,43,30.00,10.0,SE,8.1,-,N/A,,Clear,130,2011-10-30 09:35:00
4:55 AM,46.4,24.8,43,29.99,10.0,ESE,5.8,-,N/A,,Clear,120,2011-10-30 09:55:00
5:15 AM,46.4,24.8,43,29.99,10.0,ESE,9.2,-,N/A,,Scattered Clouds,120,2011-10-30 10:15:00
5:35 AM,46.4,26.6,46,29.99,10.0,ESE,8.1,-,N/A,,Scattered Clouds,120,2011-10-30 10:35:00
5:55 AM,46.4,26.6,46,29.98,10.0,SE,9.2,-,N/A,,Clear,140,2011-10-30 10:55:00
6:15 AM,46.4,26.6,46,29.98,10.0,SSE,10.4,-,N/A,,Scattered Clouds,150,2011-10-30 11:15:00
6:35 AM,46.4,26.6,46,29.98,10.0,SSE,9.2,16.1,N/A,,Clear,150,2011-10-30 11:35:00
6:55 AM,46.4,28.4,50,29.98,10.0,SE,10.4,-,N/A,,Clear,140,2011-10-30 11:55:00
7:15 AM,46.4,28.4,50,29.97,10.0,SE,9.2,-,N/A,,Clear,130,2011-10-30 12:15:00
7:35 AM,46.4,28.4,50,29.98,10.0,SSE,9.2,-,N/A,,Clear,160,2011-10-30 12:35:00
7:55 AM,46.4,28.4,50,29.98,10.0,SSE,9.2,-,N/A,,Clear,150,2011-10-30 12:55:00
8:15 AM,48.2,30.2,50,29.98,10.0,South,15.0,19.6,N/A,,Mostly Cloudy,170,2011-10-30 13:15:00
8:35 AM,50.0,30.2,47,29.99,10.0,South,18.4,23.0,N/A,,Overcast,170,2011-10-30 13:35:00
8:55 AM,50.0,30.2,47,29.99,10.0,South,16.1,21.9,N/A,,Overcast,180,2011-10-30 13:55:00
9:15 AM,50.0,32.0,50,29.98,10.0,South,16.1,21.9,N/A,,Overcast,180,2011-10-30 14:15:00
9:35 AM,51.8,35.6,54,29.98,10.0,South,17.3,20.7,N/A,,Overcast,170,2011-10-30 14:35:00
9:55 AM,51.8,35.6,54,29.96,10.0,South,18.4,25.3,N/A,,Overcast,170,2011-10-30 14:55:00
10:15 AM,53.6,35.6,51,29.96,10.0,South,20.7,26.5,N/A,,Overcast,170,2011-10-30 15:15:00
10:35 AM,53.6,35.6,51,29.96,10.0,South,24.2,33.4,N/A,,Overcast,180,2011-10-30 15:35:00
10:55 AM,53.6,35.6,51,29.95,10.0,South,19.6,27.6,N/A,,Overcast,180,2011-10-30 15:55:00
11:15 AM,53.6,37.4,54,29.95,10.0,South,20.7,31.1,N/A,,Mostly Cloudy,180,2011-10-30 16:15:00
11:35 AM,53.6,35.6,51,29.96,10.0,South,25.3,29.9,N/A,,Scattered Clouds,180,2011-10-30 16:35:00
11:55 AM,55.4,37.4,51,29.95,10.0,South,17.3,29.9,N/A,,Mostly Cloudy,180,2011-10-30 16:55:00
12:15 PM,55.4,35.6,47,29.95,10.0,South,21.9,28.8,N/A,,Overcast,190,2011-10-30 17:15:00
12:35 PM,53.6,35.6,51,29.94,10.0,South,19.6,28.8,N/A,,Overcast,190,2011-10-30 17:35:00
12:55 PM,50.0,39.2,66,29.94,10.0,South,19.6,-,N/A,Rain,Light Rain,190,2011-10-30 17:55:00
1:15 PM,50.0,41.0,71,29.92,10.0,South,13.8,-,N/A,Rain,Light Rain,180,2011-10-30 18:15:00
1:35 PM,51.8,42.8,71,29.91,10.0,South,12.7,-,N/A,,Overcast,180,2011-10-30 18:35:00
1:55 PM,51.8,42.8,71,29.92,10.0,South,15.0,-,N/A,,Overcast,190,2011-10-30 18:55:00
2:15 PM,51.8,41.0,67,29.91,10.0,South,10.4,18.4,N/A,Rain,Light Rain,170,2011-10-30 19:15:00
2:35 PM,51.8,42.8,71,29.91,10.0,South,10.4,-,N/A,Rain,Light Rain,180,2011-10-30 19:35:00
2:55 PM,55.4,42.8,63,29.91,10.0,South,15.0,18.4,N/A,,Mostly Cloudy,180,2011-10-30 19:55:00
3:15 PM,55.4,41.0,58,29.91,10.0,SSW,12.7,18.4,N/A,,Overcast,200,2011-10-30 20:15:00
3:35 PM,57.2,42.8,59,29.91,10.0,SSW,12.7,19.6,N/A,,Overcast,200,2011-10-30 20:35:00
3:55 PM,55.4,37.4,51,29.91,10.0,SSW,13.8,-,N/A,,Overcast,200,2011-10-30 20:55:00
4:15 PM,57.2,37.4,48,29.91,10.0,SW,11.5,17.3,N/A,,Overcast,220,2011-10-30 21:15:00
4:35 PM,57.2,35.6,44,29.91,10.0,SSW,11.5,-,N/A,,Overcast,210,2011-10-30 21:35:00
4:55 PM,55.4,37.4,51,29.91,10.0,SSW,4.6,-,N/A,,Overcast,210,2011-10-30 21:55:00
5:15 PM,57.2,35.6,44,29.92,10.0,WSW,9.2,-,N/A,,Overcast,240,2011-10-30 22:15:00
5:35 PM,55.4,37.4,51,29.92,10.0,West,5.8,-,N/A,,Overcast,260,2011-10-30 22:35:00
5:55 PM,53.6,37.4,54,29.93,10.0,West,5.8,-,N/A,,Mostly Cloudy,280,2011-10-30 22:55:00
6:15 PM,53.6,39.2,58,29.94,10.0,West,4.6,-,N/A,,Overcast,280,2011-10-30 23:15:00
6:35 PM,51.8,41.0,67,29.95,10.0,SSW,4.6,-,0.03,Rain,Light Rain,200,2011-10-30 23:35:00
6:55 PM,51.8,39.2,62,29.96,10.0,West,5.8,-,0.03,,Overcast,270,2011-10-30 23:55:00
7:15 PM,50.0,41.0,71,29.96,10.0,SW,5.8,-,N/A,,Overcast,230,2011-10-31 00:15:00
7:35 PM,50.0,41.0,71,29.96,10.0,Calm,Calm,-,N/A,,Overcast,0,2011-10-31 00:35:00
7:55 PM,50.0,37.4,62,29.97,10.0,WSW,5.8,-,N/A,,Overcast,250,2011-10-31 00:55:00
8:15 PM,46.4,37.4,71,29.97,10.0,WSW,3.5,-,N/A,,Scattered Clouds,240,2011-10-31 01:15:00
8:35 PM,46.4,37.4,71,29.97,10.0,WSW,4.6,-,N/A,,Clear,240,2011-10-31 01:35:00
8:55 PM,44.6,35.6,71,29.97,10.0,WSW,4.6,-,N/A,,Clear,250,2011-10-31 01:55:00
9:15 PM,42.8,35.6,76,29.97,10.0,SW,3.5,-,N/A,,Clear,230,2011-10-31 02:15:00
9:35 PM,41.0,33.8,76,29.98,10.0,SW,3.5,-,N/A,,Clear,230,2011-10-31 02:35:00
9:55 PM,44.6,33.8,66,29.98,10.0,SW,4.6,-,N/A,,Clear,230,2011-10-31 02:55:00
10:15 PM,41.0,33.8,76,29.98,10.0,Calm,Calm,-,N/A,,Clear,0,2011-10-31 03:15:00
10:35 PM,37.4,32.0,81,29.98,10.0,Calm,Calm,-,N/A,,Clear,0,2011-10-31 03:35:00
10:55 PM,35.6,32.0,87,29.98,10.0,Calm,Calm,-,N/A,,Clear,0,2011-10-31 03:55:00
11:15 PM,37.4,33.8,87,29.98,10.0,Calm,Calm,-,N/A,,Clear,0,2011-10-31 04:15:00
11:35 PM,35.6,32.0,87,29.98,10.0,SSW,3.5,-,N/A,,Clear,200,2011-10-31 04:35:00
11:55 PM,37.4,32.0,81,29.98,10.0,Calm,Calm,-,N/A,,Clear,0,2011-10-31 04:55:00